STARLINK-4261 (52868 NORAD) Tracking and Keplerian Element Data

This shows tracking and keplerian element data for the satellite.

Feedback or suggestion? Click here.




ElementValue
Catalog52868
NameSTARLINK-4261
Epoch Orbit1628
Epoch Day270.25001157
Epoch Year2022
RAAN277.9542
Inclination53.2173
Eccentricity0.0002016
Argument of Perigee38.5925
Mean Anonmoly49.5686
Mean Motion15.0884417
Decay Rate-0.00042631
L11 52868U 22062AQ 22270.25001157 -.00042631 00000+0 -26760-2 0 9995
L22 52868 53.2173 277.9542 0002016 38.5925 49.5686 15.08844170 16282

Live tracking and technical data element details for STARLINK-4261 (NORAD 52868). STARLINK-4261 can be tracked NOW for your location showing map with azimuth and elevation plus other details from your city location.

Track the satellite on the map from your city or location and see movement details for azimuth, elevation, latitude, longitude, range, height, and movement on the map or in text.







IsCatalogInMostPopularTable: catalog: 52868, numindb: 7
Update: records affected: 1



GetName: 52868 STARLINK-4261

Hit Count: updated at: Thu, 06 Oct 2022 05:12:42 GMT